TimeEST,TemperatureF,Dew PointF,Humidity,Sea Level PressureIn,VisibilityMPH,Wind Direction,Wind SpeedMPH,Gust SpeedMPH,PrecipitationIn,Events,Conditions,WindDirDegrees,DateUTC
12:15 AM,33.8,32.0,93,30.19,4.0,Calm,Calm,-,0.02,Rain,Light Rain,0,2013-01-15 05:15:00
12:35 AM,33.8,32.0,93,30.19,5.0,WNW,3.5,-,0.03,Rain,Light Rain,300,2013-01-15 05:35:00
12:55 AM,33.8,32.0,93,30.18,7.0,Calm,Calm,-,0.05,Rain,Light Rain,0,2013-01-15 05:55:00
1:15 AM,33.8,32.0,93,30.19,7.0,Calm,Calm,-,0.01,Rain,Light Rain,0,2013-01-15 06:15:00
1:55 AM,33.8,32.0,93,30.18,7.0,NW,3.5,-,0.03,Rain,Rain,310,2013-01-15 06:55:00
2:15 AM,33.8,32.0,93,30.18,10.0,Calm,Calm,-,N/A,,Overcast,0,2013-01-15 07:15:00
2:55 AM,33.8,33.8,100,30.17,10.0,North,3.5,-,0.01,,Overcast,10,2013-01-15 07:55:00
3:15 AM,33.8,33.8,100,30.16,10.0,North,6.9,-,N/A,,Overcast,10,2013-01-15 08:15:00
3:35 AM,33.8,33.8,100,30.15,10.0,Calm,Calm,-,N/A,,Overcast,0,2013-01-15 08:35:00
4:15 AM,33.8,33.8,100,30.13,7.0,Calm,Calm,-,N/A,,Overcast,0,2013-01-15 09:15:00
4:35 AM,35.6,33.8,93,30.13,10.0,NNE,4.6,-,N/A,,Overcast,20,2013-01-15 09:35:00
4:55 AM,35.6,33.8,93,30.13,10.0,NNE,4.6,-,N/A,,Overcast,20,2013-01-15 09:55:00
5:15 AM,35.6,33.8,93,30.14,7.0,NNE,5.8,-,N/A,,Overcast,20,2013-01-15 10:15:00
5:35 AM,35.6,33.8,93,30.12,2.5,ENE,5.8,-,N/A,,Drizzle,60,2013-01-15 10:35:00
5:55 AM,35.6,33.8,93,30.13,3.0,NE,3.5,-,N/A,,Drizzle,50,2013-01-15 10:55:00
6:15 AM,35.6,33.8,93,30.14,2.5,Calm,Calm,-,N/A,,Drizzle,0,2013-01-15 11:15:00
6:35 AM,35.6,33.8,93,30.15,3.0,Calm,Calm,-,0.01,,Light Drizzle,0,2013-01-15 11:35:00
7:15 AM,35.6,35.6,100,30.15,2.5,East,5.8,-,N/A,,Drizzle,90,2013-01-15 12:15:00
7:35 AM,35.6,33.8,93,30.17,4.0,North,3.5,-,0.01,,Overcast,350,2013-01-15 12:35:00
7:55 AM,35.6,35.6,100,30.21,5.0,NNW,3.5,-,0.01,,Overcast,330,2013-01-15 12:55:00
8:15 AM,35.6,35.6,100,30.20,2.0,East,3.5,-,N/A,Rain,Rain,80,2013-01-15 13:15:00
8:35 AM,35.6,35.6,100,30.20,3.0,Calm,Calm,-,0.03,Rain,Light Rain,0,2013-01-15 13:35:00
8:55 AM,35.6,35.6,100,30.22,7.0,NW,5.8,-,0.04,Rain,Light Rain,320,2013-01-15 13:55:00
9:15 AM,35.6,35.6,100,30.22,10.0,North,5.8,-,N/A,,Drizzle,350,2013-01-15 14:15:00
9:35 AM,35.6,35.6,100,30.23,7.0,North,4.6,-,N/A,,Drizzle,350,2013-01-15 14:35:00
9:55 AM,37.4,35.6,93,30.21,10.0,NE,3.5,-,N/A,,Light Drizzle,40,2013-01-15 14:55:00
10:15 AM,37.4,35.6,93,30.21,10.0,ESE,3.5,-,N/A,,Light Drizzle,120,2013-01-15 15:15:00
10:35 AM,37.4,35.6,93,30.22,7.0,Calm,Calm,-,0.01,Rain,Light Rain,0,2013-01-15 15:35:00
10:55 AM,37.4,35.6,93,30.20,10.0,East,3.5,-,0.02,Rain,Light Rain,90,2013-01-15 15:55:00
11:15 AM,37.4,35.6,93,30.21,10.0,NE,4.6,-,0.01,Rain,Light Rain,50,2013-01-15 16:15:00
11:35 AM,37.4,35.6,93,30.20,10.0,East,3.5,-,0.01,,Light Drizzle,90,2013-01-15 16:35:00
11:55 AM,37.4,35.6,93,30.15,10.0,ESE,5.8,-,0.02,Rain,Light Rain,110,2013-01-15 16:55:00
12:15 PM,37.4,33.8,87,30.18,10.0,Calm,Calm,-,N/A,,Overcast,0,2013-01-15 17:15:00
12:35 PM,37.4,35.6,93,30.15,10.0,Calm,Calm,-,0.01,Rain,Light Rain,0,2013-01-15 17:35:00
12:55 PM,37.4,35.6,93,30.13,10.0,ESE,3.5,-,0.02,Rain,Light Rain,110,2013-01-15 17:55:00
1:35 PM,37.4,35.6,93,30.13,7.0,East,6.9,-,0.04,Rain,Rain,80,2013-01-15 18:35:00
1:55 PM,37.4,35.6,93,30.12,5.0,East,5.8,-,0.08,Rain,Rain,100,2013-01-15 18:55:00
2:35 PM,35.6,33.8,93,30.12,7.0,East,3.5,-,0.07,Rain,Light Rain,90,2013-01-15 19:35:00
2:55 PM,35.6,33.8,93,30.13,7.0,ENE,5.8,-,0.10,Rain,Rain,70,2013-01-15 19:55:00
3:15 PM,35.6,33.8,93,30.11,10.0,East,4.6,-,0.01,Rain,Light Rain,100,2013-01-15 20:15:00
3:35 PM,35.6,33.8,93,30.11,10.0,East,5.8,-,0.03,Rain,Light Rain,80,2013-01-15 20:35:00
3:55 PM,35.6,33.8,93,30.11,10.0,ESE,3.5,-,0.03,,Light Drizzle,120,2013-01-15 20:55:00
4:15 PM,35.6,33.8,93,30.11,10.0,East,3.5,-,N/A,Rain,Light Rain,80,2013-01-15 21:15:00
4:35 PM,35.6,33.8,93,30.11,10.0,ENE,5.8,-,0.01,Rain,Light Rain,70,2013-01-15 21:35:00
4:55 PM,35.6,33.8,93,30.12,10.0,Calm,Calm,-,0.03,Rain,Light Rain,0,2013-01-15 21:55:00
5:15 PM,35.6,33.8,93,30.11,7.0,ENE,4.6,-,0.02,Rain,Rain,70,2013-01-15 22:15:00
5:35 PM,35.6,33.8,93,30.11,5.0,ENE,4.6,-,0.07,Rain,Rain,70,2013-01-15 22:35:00
5:55 PM,35.6,33.8,93,30.12,5.0,East,5.8,-,0.09,Rain,Rain,80,2013-01-15 22:55:00
6:15 PM,35.6,32.0,87,30.11,7.0,East,4.6,-,0.01,Rain,Light Rain,80,2013-01-15 23:15:00
6:35 PM,33.8,32.0,93,30.10,5.0,ENE,5.8,-,0.03,Rain,Rain,60,2013-01-15 23:35:00
6:55 PM,35.6,32.0,87,30.12,5.0,Calm,Calm,-,0.05,Rain,Light Rain,0,2013-01-15 23:55:00
7:15 PM,33.8,33.8,100,30.11,4.0,ENE,6.9,-,0.02,Rain,Rain,70,2013-01-16 00:15:00
7:35 PM,33.8,32.0,93,30.09,5.0,East,3.5,-,0.05,Rain,Light Rain,100,2013-01-16 00:35:00
7:55 PM,33.8,32.0,93,30.10,5.0,NNE,4.6,-,0.06,Rain,Rain,30,2013-01-16 00:55:00
8:15 PM,33.8,32.0,93,30.08,3.0,ENE,5.8,-,0.03,Rain,Rain,60,2013-01-16 01:15:00
8:35 PM,33.8,32.0,93,30.07,7.0,ENE,3.5,-,0.05,Rain,Rain,60,2013-01-16 01:35:00
8:55 PM,33.8,32.0,93,30.06,5.0,NE,4.6,-,0.07,Rain,Light Rain,50,2013-01-16 01:55:00
9:15 PM,33.8,32.0,93,30.05,7.0,ENE,5.8,-,0.01,Rain,Rain,60,2013-01-16 02:15:00
9:35 PM,33.8,32.0,93,30.03,10.0,NE,5.8,-,0.01,,Light Drizzle,50,2013-01-16 02:35:00
9:55 PM,33.8,32.0,93,30.03,2.5,ENE,4.6,-,0.02,Rain,Heavy Rain,60,2013-01-16 02:55:00
10:15 PM,33.8,32.0,93,30.03,2.5,East,3.5,-,0.01,,Heavy Drizzle,80,2013-01-16 03:15:00
10:35 PM,33.8,32.0,93,30.03,2.5,ENE,4.6,-,0.04,Rain,Heavy Rain,70,2013-01-16 03:35:00
10:55 PM,33.8,32.0,93,30.03,3.0,East,4.6,-,0.05,,Heavy Drizzle,80,2013-01-16 03:55:00
11:15 PM,33.8,32.0,93,30.03,2.0,ENE,4.6,-,0.05,Rain,Rain,70,2013-01-16 04:15:00
11:35 PM,33.8,32.0,93,30.02,2.5,ENE,5.8,-,0.11,Rain,Light Rain,60,2013-01-16 04:35:00
11:55 PM,33.8,32.0,93,30.02,3.0,ENE,4.6,-,0.13,,Drizzle,70,2013-01-16 04:55:00